Tracking 30685 objects as of 17-Jun-2025
HD Live streaming from Space Station
objects crossing your sky now

SIRIUS XM-10

Track SIRIUS XM-10 now!
SIRIUS XM-10 is classified as:


NORAD ID: 64290
Int'l Code: 2025-122A
Perigee: 33,301.8 km
Apogee: 35,760.1 km
Inclination: 0.3 °
Period: 1,372.1 minutes
Semi major axis: 40901 km
RCS: Unknown
Launch date: June 7, 2025
Source: United States (US)
Launch site: AIR FORCE EASTERN TEST RANGE (AFETR)
Your satellite tracking list
Your tracking list is empty




NASA's NSSDC Master Catalog

Two Line Element Set (TLE):
1 64290U 25122A   25167.81225566 -.00000128  00000-0  00000-0 0  9991
2 64290   0.3326 174.0046 0300515 163.9114  94.0584  1.04951097    15
Source of the keplerian elements: AFSPC